www.pogodaiklimat.ru

Погода и климат >> Архив погоды >> Норвегия >> Vaeroy Heliport


ПОГОДА в Vaeroy Heliport

  • Прогноз погоды в Vaeroy Heliport
  • Монитор погоды в Vaeroy Heliport
  • Климат города

АРХИВ ПОГОДЫ в Vaeroy Heliport

Время (UTC), дата Ветер
(напр.,м/с)
 
Видим.   Явления Облачность Т
(С)
Тd
(С)
f
(%)
Тe
(С)
Тes
(С)
Комфортность P
(гПа)
Po
(гПа)
Тmin
(С)
Tmax
(С)
R
(мм)
R24
(мм)
S
(см)
02 15.10 ЮЗ 10
{13}
н/о н/о +10.4 +7.0 79 +6 +6 998.2 997.7
01 15.10 ЮЗ 10
{15}
н/о н/о +10.2 +7.1 81 +6 +6 997.8 997.3
03 15.10 ЮЗ 10
{15}
н/о н/о +9.0 +6.4 84 +4 +4 998.6 998.1
04 15.10 ЮЗ 9
{13}
н/о н/о +10.1 +6.1 76 +6 +6 999.0 998.5
05 15.10 ЮЗ 10
{15}
н/о н/о +9.9 +6.5 79 +5 +5 999.4 998.9
06 15.10 ЮЗ 9
{15}
н/о н/о +10.0 +6.3 78 +6 +6 1000.0 999.5 +8.7 +10.8
08 15.10 ЮЗ 9
{15}
н/о н/о +9.8 +6.7 81 +5 +5 1001.5 1001.0
07 15.10 ЮЗ 7
{14}
н/о н/о +9.5 +6.7 83 +6 +6 1000.9 1000.4
09 15.10 ЮЗ 9
{15}
н/о н/о +9.5 +6.2 80 +5 +5 1002.0 1001.5
10 15.10 ЮЗ 10
{15}
н/о н/о +10.2 +6.2 76 +6 +6 1002.3 1001.8
11 15.10 ЮЗ 10
{15}
н/о н/о +10.6 +5.2 69 +7 +7 1002.4 1001.9
12 15.10 ЮЗ 10
{16}
н/о н/о +9.3 +6.6 83 +5 +5 1002.8 1002.3
14 15.10 ЮЗ 9
{12}
н/о н/о +9.5 +6.1 79 +5 +5 1002.6 1002.1
13 15.10 ЮЗ 9
{14}
н/о н/о +9.7 +6.2 79 +5 +5 1002.6 1002.1
15 15.10 ЮЗ 9
{12}
н/о н/о +9.7 +5.9 77 +5 +5 1002.1 1001.6
16 15.10 ЮЗ 9
{13}
н/о н/о +9.7 +6.0 78 +5 +5 1001.8 1001.3
17 15.10 ЮЗ 8
{13}
н/о н/о +9.4 +6.0 79 +5 +5 1001.4 1000.9
18 15.10 Ю 10
{14}
н/о н/о +9.1 +5.7 79 +4 +4 1001.0 1000.5 +8.7 +10.7
20 15.10 Ю 7
{10}
н/о н/о +9.8 +5.7 76 +6 +6 999.6 999.1
19 15.10 Ю 8
{12}
н/о н/о +9.7 +6.3 79 +6 +6 1000.2 999.7
21 15.10 Ю 10
{13}
н/о н/о +8.6 +6.5 87 +4 +4 998.4 997.9
22 15.10 Ю 5
{11}
н/о н/о +8.4 +5.5 82 +5 +5 997.0 996.5
23 15.10 В 4
{6}
н/о н/о +8.4 +6.2 86 +5 +5 995.2 994.7
00 16.10 В 7
{13}
н/о н/о +8.7 +6.3 85 +4 +4 993.1 992.7
02 16.10 В 7
{11}
н/о н/о +8.5 +5.8 83 +4 +4 989.5 989.0
01 16.10 В 8
{11}
н/о н/о +9.3 +5.4 77 +5 +5 992.0 991.5
03 16.10 СВ 8
{10}
н/о н/о +8.3 +5.7 84 +4 +4 988.2 987.7
04 16.10 С 9
{12}
н/о н/о +7.7 +5.7 87 +3 +3 988.5 988.0
05 16.10 СЗ 6
{14}
н/о н/о +7.3 +4.8 84 +3 +3 989.7 989.3
06 16.10 СЗ 8
{17}
н/о н/о +7.2 +4.8 85 +2 +2 991.8 991.3 +7.0 +9.9
08 16.10 З 8
{17}
н/о н/о +8.2 +4.1 75 +4 +4 994.3 993.8
07 16.10 СЗ 8
{19}
н/о н/о +7.5 +3.8 77 +3 +3 993.1 992.7
09 16.10 З 9
{19}
н/о н/о +8.2 +4.0 75 +3 +3 995.7 995.2
10 16.10 З 10 н/о н/о +8.2 +3.8 74 +3 +3 996.0 995.5
11 16.10 З 12
{22}
н/о н/о +8.4 +4.2 75 +3 +3 996.6 996.1
12 16.10 З 11
{22}
н/о н/о +8.3 +4.7 78 +3 +3 996.6 996.1
14 16.10 З 10
{17}
н/о н/о +8.1 +4.8 80 +3 +3 997.8 997.3
13 16.10 З 9
{20}
н/о н/о +7.5 +4.2 80 +2 +2 997.4 997.0
15 16.10 З 12
{19}
н/о н/о +8.6 +5.0 78 +3 +3 997.6 997.1
16 16.10 З 8
{20}
н/о н/о +8.0 +5.4 84 +3 +3 998.2 997.7
17 16.10 З 12
{21}
н/о н/о +8.0 +5.0 81 +2 +2 998.9 998.4
18 16.10 З 10
{21}
н/о н/о +8.3 +4.5 77 +3 +3 999.1 998.7 +8.8
20 16.10 З 8
{17}
н/о н/о +8.5 +5.2 80 +4 +4 1000.2 999.7
19 16.10 З 9
{19}
н/о н/о +8.5 +5.2 80 +4 +4 999.7 999.2
21 16.10 З 9
{16}
н/о н/о +8.5 +4.9 78 +4 +4 1000.6 1000.2
22 16.10 З 8
{15}
н/о н/о +8.6 +5.0 78 +4 +4 1000.8 1000.3
23 16.10 З 8
{15}
н/о н/о +8.3 +5.0 80 +4 +4 1000.8 1000.3
00 17.10 З 8
{19}
н/о н/о +8.5 +5.3 80 +4 +4 1001.1 1000.7
02 17.10 З 7
{14}
н/о н/о +8.7 +4.8 76 +5 +5 1001.3 1000.8
01 17.10 З 7
{15}
н/о н/о +8.5 +4.9 78 +4 +4 1001.2 1000.7
03 17.10 З 7
{12}
н/о н/о +8.1 +4.3 77 +4 +4 1001.2 1000.8
04 17.10 З 6
{12}
н/о н/о +8.3 +4.7 78 +4 +4 1001.2 1000.7
05 17.10 З 6
{11}
н/о н/о +8.0 +4.4 78 +4 +4 1001.0 1000.6
06 17.10 З 5
{15}
н/о н/о +8.0 +4.0 76 +4 +4 1000.8 1000.3 +7.8 +8.8
08 17.10 З 4
{9}
н/о н/о +8.1 +4.3 77 +5 +5 1000.5 1000.0
07 17.10 З 5
{9}
н/о н/о +7.8 +4.9 82 +4 +4 1000.7 1000.2
09 17.10 З 4
{7}
н/о н/о +8.4 +4.3 75 +5 +5 1000.4 999.9
10 17.10 З 3
{8}
н/о н/о +8.8 +4.5 74 +6 +6 1000.0 999.5
11 17.10 З 4
{11}
н/о н/о +8.9 +5.3 78 +6 +6 999.7 999.3
12 17.10 З 4
{11}
н/о н/о +8.0 +4.5 79 +5 +5 999.5 999.0
14 17.10 ЮЗ 6
{11}
н/о н/о +8.0 +4.7 80 +4 +4 998.6 998.1
13 17.10 ЮЗ 4
{12}
н/о н/о +8.0 +4.7 80 +5 +5 999.1 998.6
15 17.10 ЮЗ 5
{11}
н/о н/о +7.7 +4.2 78 +4 +4 998.3 997.8
16 17.10 З 3
{6}
н/о н/о +7.8 +4.4 79 +5 +5 997.8 997.3
17 17.10 ЮЗ 2
{7}
н/о н/о +7.4 +4.2 80 +5 +5 997.6 997.1
18 17.10 СЗ 1
{12}
н/о н/о +7.0 +4.4 84 +6 +6 997.5 997.0 +7.0 +9.1
20 17.10 СЗ 2
{3}
н/о н/о +5.9 +3.7 86 +3 +3 997.5 997.0
19 17.10 СВ 1
{3}
н/о н/о +6.8 +4.5 85 +6 +6 997.6 997.1
21 17.10 СЗ 2
{3}
н/о н/о +4.9 +3.5 91 +2 +2 997.5 997.0
22 17.10 З 2
{3}
н/о н/о +5.5 +4.0 90 +3 +3 998.0 997.5
23 17.10 З 1
{3}
н/о н/о +5.7 +4.3 91 +4 +4 998.3 997.8
00 18.10 СЗ 2
{5}
н/о н/о +6.5 +4.2 85 +4 +4 998.7 998.3
02 18.10 С 6
{8}
н/о н/о +7.8 +4.6 80 +4 +4 999.7 999.3
01 18.10 СЗ 5
{7}
н/о н/о +7.5 +4.0 78 +4 +4 999.3 998.8
03 18.10 С 7
{11}
н/о н/о +8.3 +5.1 80 +4 +4 1000.5 1000.0
04 18.10 С 5 н/о н/о +8.4 +5.3 81 +5 +5 1001.1 1000.6
05 18.10 СЗ 5
{12}
н/о н/о +7.5 +4.5 81 +4 +4 1001.9 1001.5
06 18.10 СЗ 5
{12}
н/о н/о +7.8 +4.4 79 +4 +4 1002.7 1002.3 +4.8 +8.4
08 18.10 СЗ 3
{9}
н/о н/о +7.4 +4.0 79 +5 +5 1004.7 1004.2
07 18.10 СЗ 4
{8}
н/о н/о +7.3 +4.1 80 +4 +4 1003.6 1003.1
09 18.10 С 6
{11}
н/о н/о +8.1 +4.4 77 +4 +4 1005.6 1005.1
10 18.10 С 5
{9}
н/о н/о +9.0 +4.6 74 +6 +6 1006.5 1006.0
11 18.10 С 11
{14}
н/о н/о +9.2 +3.9 69 +4 +4 1007.7 1007.2
12 18.10 С 9
{15}
н/о н/о +8.8 +2.9 66 +4 +4 1008.7 1008.2
14 18.10 С 9
{15}
н/о н/о +8.8 +2.8 66 +4 +4 1010.8 1010.3
13 18.10 С 9
{14}
н/о н/о +8.7 +3.4 69 +4 +4 1009.9 1009.4
15 18.10 С 10
{15}
н/о н/о +8.3 +3.2 70 +3 +3 1011.7 1011.2
16 18.10 С 9
{14}
н/о н/о +8.2 +2.0 65 +4 +4 1012.4 1011.9
17 18.10 СЗ 8
{16}
н/о н/о +7.8 +2.4 69 +3 +3 1013.0 1012.6
18 18.10 СЗ 8
{16}
н/о н/о +7.9 +1.2 63 +3 +3 1013.7 1013.2 +9.4
20 18.10 СЗ 6
{12}
н/о н/о +7.8 +1.3 63 +4 +4 1015.0 1014.5
19 18.10 С 7
{12}
н/о н/о +8.1 +2.1 66 +4 +4 1014.4 1013.9
21 18.10 С 7
{11}
н/о н/о +7.9 +1.3 63 +4 +4 1015.5 1015.0
22 18.10 С 5
{11}
н/о н/о +7.8 +1.3 63 +4 +4 1016.2 1015.7
23 18.10 С 6
{10}
н/о н/о +7.8 +2.1 67 +4 +4 1016.7 1016.2
00 19.10 С 5
{12}
н/о н/о +7.7 +1.1 63 +4 +4 1017.0 1016.5
02 19.10 СЗ 3
{8}
н/о н/о +6.8 +0.5 64 +4 +4 1017.8 1017.3
01 19.10 СЗ 4
{10}
н/о н/о +7.3 +0.7 63 +4 +4 1017.4 1016.9
03 19.10 СЗ 3
{8}
н/о н/о +6.4 +1.5 71 +4 +4 1018.0 1017.5
04 19.10 СЗ 3
{6}
н/о н/о +6.9 +1.4 68 +4 +4 1018.1 1017.6
05 19.10 СЗ 3
{5}
н/о н/о +6.7 +1.4 69 +4 +4 1018.4 1017.9
06 19.10 ЮЗ 2
{10}
н/о н/о +5.3 +2.7 83 +3 +3 1018.8 1018.3 +5.3 +8.1
08 19.10 СЗ 3
{8}
н/о н/о +5.7 +2.4 79 +2 +2 1019.6 1019.1
07 19.10 З 2
{4}
н/о н/о +5.8 +3.0 82 +3 +3 1019.0 1018.5
09 19.10 З 1
{3}
н/о н/о +6.5 +3.2 79 +6 +6 1019.8 1019.3
10 19.10 С 4
{10}
н/о н/о +6.8 +3.9 82 +3 +3 1020.2 1019.7
11 19.10 З 1
{4}
н/о н/о +7.0 +3.0 76 +6 +6 1020.4 1019.9
12 19.10 С 2
{10}
н/о н/о +7.9 +2.7 70 +6 +6 1020.6 1020.1
14 19.10 С 5
{7}
н/о н/о +7.3 +3.2 75 +3 +3 1020.9 1020.4
13 19.10 С 4
{6}
н/о н/о +7.7 +3.0 72 +5 +5 1020.8 1020.3
15 19.10 СВ 4
{6}
н/о н/о +7.4 +3.6 77 +4 +4 1021.1 1020.6
16 19.10 С 5
{8}
н/о н/о +7.3 +1.7 68 +4 +4 1021.2 1020.7
17 19.10 С 5
{6}
н/о н/о +7.1 +1.0 65 +3 +3 1021.3 1020.8
18 19.10
{8}
н/о н/о +7.3 +1.4 66 1021.6 1021.1 +5.3 +8.4
20 19.10 СЗ 2
{8}
н/о н/о +5.5 +0.8 72 +3 +3 1022.4 1021.9
19 19.10 С 6
{8}
н/о н/о +7.4 +1.1 64 +3 +3 1022.0 1021.5
21 19.10 С 5
{11}
н/о н/о +7.1 +1.5 68 +3 +3 1022.5 1022.0
22 19.10 С 5
{7}
н/о н/о +7.3 +0.4 62 +4 +4 1022.5 1022.0
23 19.10 С 5
{10}
н/о н/о +7.2 +1.1 65 +4 +4 1022.6 1022.1
00 20.10 С 4
{11}
н/о н/о +7.1 +0.9 65 +4 +4 1022.7 1022.2
02 20.10 СВ 3
{4}
н/о н/о +6.7 +1.5 69 +4 +4 1022.9 1022.4
01 20.10 С 2
{5}
н/о н/о +6.4 +0.1 64 +4 +4 1022.8 1022.3
03 20.10 СВ 5
{7}
н/о н/о +6.8 +1.8 70 +3 +3 1022.9 1022.4
04 20.10 СВ 6
{7}
н/о н/о +6.9 +2.1 71 +3 +3 1022.9 1022.4
05 20.10 СВ 6
{9}
н/о н/о +6.9 +2.6 74 +3 +3 1023.0 1022.5
06 20.10 СВ 5
{9}
н/о н/о +7.0 +1.8 69 +3 +3 1023.1 1022.6 +5.4 +7.5
08 20.10 СВ 5
{8}
н/о н/о +7.5 +3.0 73 +4 +4 1023.4 1022.9
07 20.10 В 4
{7}
н/о н/о +7.0 +0.8 65 +4 +4 1023.2 1022.7
09 20.10 В 5
{8}
н/о н/о +7.5 +2.8 72 +4 +4 1023.6 1023.1
10 20.10 В 6
{8}
н/о н/о +7.4 +2.0 69 +3 +3 1023.7 1023.2
11 20.10 В 7
{9}
н/о н/о +7.2 +2.3 71 +3 +3 1023.8 1023.3
12 20.10 В 7
{9}
н/о н/о +7.2 +1.8 69 +3 +3 1023.6 1023.1
14 20.10 В 7
{10}
н/о н/о +7.0 +1.0 66 +3 +3 1023.5 1023.0
13 20.10 В 7
{10}
н/о н/о +7.1 +2.1 70 +3 +3 1023.6 1023.1
15 20.10 В 7
{9}
н/о н/о +6.8 +0.7 65 +2 +2 1023.5 1023.0
16 20.10 В 7
{9}
н/о н/о +7.0 +0.7 64 +3 +3 1023.3 1022.8
17 20.10 В 8
{10}
н/о н/о +7.0 +1.0 66 +2 +2 1023.2 1022.7
18 20.10 СВ 8
{10}
н/о н/о +6.9 +1.0 66 +2 +2 1023.1 1022.6 +6.7 +7.6
20 20.10 В 7
{9}
н/о н/о +6.9 +1.2 67 +2 +2 1023.0 1022.5
19 20.10 В 7
{11}
н/о н/о +6.9 +0.4 63 +2 +2 1023.1 1022.6
21 20.10 В 7
{9}
н/о н/о +6.9 +0.8 65 +2 +2 1022.8 1022.3
22 20.10 В 7
{10}
н/о н/о +6.7 +0.5 65 +2 +2 1023.0 1022.5
23 20.10 В 7
{9}
н/о н/о +6.6 +0.8 66 +2 +2 1022.7 1022.2
00 21.10 В 8
{11}
н/о н/о +6.7 +0.6 65 +2 +2 1022.4 1021.9
02 21.10 В 7
{9}
н/о н/о +6.6 +1.2 68 +2 +2 1022.0 1021.5
01 21.10 В 8
{10}
н/о н/о +6.7 +1.2 68 +2 +2 1022.3 1021.8
03 21.10 СВ 7
{9}
н/о н/о +6.7 +0.6 65 +2 +2 1021.9 1021.4
04 21.10 СВ 8
{10}
н/о н/о +6.7 +1.2 68 +2 +2 1021.5 1021.0
05 21.10 СВ 8
{11}
н/о н/о +6.7 +0.9 66 +2 +2 1021.2 1020.7
06 21.10 СВ 9
{11}
н/о н/о +6.9 +2.4 73 +2 +2 1020.9 1020.4 +6.5 +7.1
08 21.10 СВ 9
{11}
н/о н/о +7.2 +2.6 73 +2 +2 1020.8 1020.3
07 21.10 СВ 9
{11}
н/о н/о +7.0 +2.4 73 +2 +2 1020.8 1020.3
09 21.10 СВ 10
{12}
н/о н/о +7.5 +2.6 71 +2 +2 1020.7 1020.2
10 21.10 СВ 10
{12}
н/о н/о +7.7 +2.4 69 +3 +3 1020.7 1020.2
11 21.10 СВ 11
{12}
н/о н/о +7.9 +2.8 70 +3 +3 1020.3 1019.8
12 21.10 СВ 10
{13}
н/о н/о +8.0 +2.3 67 +3 +3 1019.9 1019.4
14 21.10 СВ 9
{11}
н/о н/о +8.2 +3.1 70 +3 +3 1019.4 1018.9
13 21.10 СВ 9
{11}
н/о н/о +8.0 +2.7 69 +3 +3 1019.7 1019.2
15 21.10 СВ 10
{11}
н/о н/о +8.2 +2.9 69 +3 +3 1019.1 1018.6
16 21.10 СВ 10
{11}
н/о н/о +8.3 +3.8 73 +3 +3 1019.0 1018.5
17 21.10 СВ 10
{12}
н/о н/о +8.5 +3.7 72 +4 +4 1018.7 1018.3
18 21.10 СВ 10
{13}
н/о н/о +8.5 +4.0 73 +4 +4 1018.8 1018.3 +6.7 +8.6
20 21.10 СВ 10
{12}
н/о н/о +8.5 +3.9 73 +4 +4 1018.2 1017.7
19 21.10 СВ 11
{12}
н/о н/о +8.5 +3.9 73 +3 +3 1018.4 1018.0
21 21.10 СВ 10
{12}
н/о н/о +8.5 +4.3 75 +4 +4 1018.2 1017.7
22 21.10 СВ 9
{12}
н/о н/о +8.7 +3.5 70 +4 +4 1018.0 1017.5
23 21.10 СВ 9
{10}
н/о н/о +8.8 +4.6 75 +4 +4 1017.8 1017.3
00 22.10 СВ 9
{12}
н/о н/о +8.8 +4.6 75 +4 +4 1017.7 1017.2

 

Местоположение метеостанции Vaeroy Heliport (Норвегия): широта 67.65 долгота 12.72 высота над уровнем моря 4 м.

В архиве по умолчанию представлена погода в Vaeroy Heliport за последнюю неделю. Архивные данные за месяц целиком и за предыдущие месяцы, начиная с января 2011 года, Вы можете получить, выбрав интересующий диапазон дат из раскрывающегося списка и нажав кнопку "Ввод!".

Внимание! Время в таблицах - всемирное. Для получения местного времени необходимо прибавить поправку, которая в Vaeroy Heliport равна 1 ч.

Смотрите также архив погоды в соседних городах и на ближайших метеорологических станциях:

Погода в Rost Flyplass (Норвегия) (30 км)
Погода в Helligvaer II (Норвегия) (57 км)
Погода в Leknes (Норвегия) (68 км)
Погода в Bodo VI (Норвегия) (82 км)
Погода в Reipa (Норвегия) (92 км)
Погода в Skrova Fyr (Норвегия) (98 км)
Погода в Myken (Норвегия) (98 км)
Погода в Svolvaer Lufthavn (Норвегия) (105 км)
Погода в Bo i Vesteralen (Норвегия) (128 км)
Погода в Setsa (Норвегия) (130 км)

Пояснения к столбцам:

Ветер - указаны скорость ветра в м/с - средняя за 10 мин, порывы в срок и между сроками (в фигурных скобках) и направление, откуда дует ветер: С - северный, СВ - северо-восточный, В - восточный, ЮВ - юго-восточный, Ю - южный, ЮЗ - юго-западный, З - западный, СЗ - северо-западный.
Видимость - горизонтальная дальность видимости в метрах или километрах. При видимости от 1 до 10 км при отсутствии осадков обычно наблюдается дымка, при ухудшении видимости до 1 км и менее - туман. В сухую погоду видимость может ухудшаться дымом, пылью или мглою.
Явления - указаны атмосферные явления, наблюдавшиеся в срок или в последний час перед сроком; фигурными скобками обозначены явления, наблюдавшиеся между сроками (за 1-3 часа до срока); квадратными скобками обозначены град или гололедные отложения с указанием их диаметра в мм.
Облачность - указаны через наклонную черту общая и нижняя облачность в баллах и высота нижней границы облаков в метрах; квадратными скобками обозначены формы облаков: Ci - перистые, Cs - перисто-слоистые, Cc - перисто-кучевые, Ac - высококучевые, As - высокослоистые, Sc - слоисто-кучевые, Ns - слоисто-дождевые, Cu - кучевые, Cb - кучево-дождевые. Подробнее классификацию облаков см. в Атласе облаков (PDF).
T - Температура воздуха - температура, измеренная на высоте 2 м над землей.
Td - Температура точки росы - температура, при понижении до которой содержащийся в воздухе водяной пар достигнет насыщения.
f - Относительная влажность воздуха - влажноcть воздуха, измеренная на высоте 2 м над землей.
Te - Эффективная температура - температура, которую ощущает одетый по сезону человек в тени. Характеристика душности погоды. При расчете учитывается влияние влажности воздуха и скорости ветра на теплоощущения человека.
Tes - Эффективная температура на солнце - температура, которую ощущает человек, с поправкой на солнечный нагрев. Характеристика знойности погоды. Зависит от высоты солнца над горизонтом, облачности и скорости ветра. Ночью, в пасмурную погоду, а также при ветре 12 м/с и более поправка равна нулю.
P - Атмосферное давление - приведенное к уровню моря атмосферное давление.
Po - Атмосферное давление - измеренное на уровне метеостанции атмосферное давление.
Tmin - Минимальная температура - минимум температуры воздуха на высоте 2 м над землей.
Tmax - Максимальная температура - максимум температуры воздуха на высоте 2 м над землей.
R - Количество осадков - Количество выпавших осадков за период времени, мм. При наведении курсора мыши на число - период времени, за который выпало указанное количество осадков.
R24 - Количество осадков - Количество выпавших осадков за 24 часа, мм.
S - Снежный покров - Высота снежного покрова, см. При наведении курсора мыши на число - состояние снежного покрова и степень покрытия местности в баллах.